Location: Byhalia Creek
(34.8270°N, 89.8040°W)
Time: 16:34:58
(UTC+00:00)

Cosmos 1346 Rocket - Pass Details

Date: 22 April 2026
Orbit: 472 x 485 km, 81.2° (Epoch: 9 May)

Event Time Altitude Azimuth Distance (km) Brightness Sun altitude
Rises 02:33:25 0° 352° (N) 2,523 6.8 -22.5°
Reaches altitude 10° 02:35:31 10° 352° (N) 1,641 5.8 -22.9°
Enters shadow 02:38:17 51° 354° (N) 600 3.1 -23.4°
